GFSGBSN_850_thetae_000.txt.gz
Theta_e
306 306 306 306 307 307 307 308 309 309 310 312 314 315 316 317 318 318 318 319 319 320 320 320 322 325 321 318 319 324 324 324 320 322 322 322 324 330 330 329 331 338 340 341 342 341 342
305 305 305 305 305 306 306 306 307 309 309 309 310 312 313 314 316 317 318 318 319 320 319 320 321 325 319 316 320 322 325 325 322 321 322 321 326 332 331 327 329 340 341 342 342 343 343
304 304 304 304 305 305 305 305 306 307 308 308 309 309 310 312 313 316 318 319 318 319 320 319 321 324 319 322 322 325 326 325 323 321 321 322 325 327 330 326 332 339 340 338 341 343 344
303 304 304 304 304 305 305 305 305 306 307 307 308 309 310 310 312 314 316 318 319 319 320 321 323 324 321 323 321 327 327 324 322 322 321 322 325 328 328 329 330 333 332 335 338 342 344
303 303 303 303 303 304 304 305 305 306 307 307 307 308 309 310 310 312 316 317 320 320 322 328 324 323 324 326 327 327 328 325 320 321 322 325 326 326 327 329 325 328 332 337 337 339 342
303 303 303 303 303 303 303 304 304 305 306 307 308 308 309 310 310 311 315 316 320 322 330 327 322 326 324 327 330 327 328 327 323 322 324 323 324 327 325 324 327 331 335 337 337 336 339
304 304 304 304 304 304 304 304 304 304 305 305 306 308 309 310 310 311 314 316 320 325 323 325 326 327 327 328 331 327 328 327 325 322 319 323 323 324 328 326 327 330 335 338 337 334 345
304 304 304 304 304 304 304 304 304 304 305 305 305 306 308 310 310 311 312 313 320 320 320 323 324 325 325 326 330 331 328 327 323 319 320 322 324 326 329 330 329 328 332 337 338 335 335
303 303 303 303 303 303 303 303 304 304 304 304 305 306 307 310 311 312 313 319 318 319 320 322 324 324 324 326 329 329 326 326 320 320 321 321 324 329 331 331 331 327 335 335 337 338 337
303 303 303 302 302 302 302 303 303 303 304 304 305 305 306 308 311 312 312 316 315 321 319 322 324 324 324 326 327 329 328 327 320 320 321 322 324 328 331 331 329 325 327 336 339 340 341
303 303 302 301 301 301 302 302 302 302 303 303 304 304 305 305 308 310 310 313 317 322 328 326 327 325 323 327 327 327 327 326 322 321 320 322 325 326 328 331 327 327 326 327 339 339 336
302 302 302 302 301 301 301 301 301 302 302 303 303 304 305 306 308 310 314 316 320 321 328 330 326 324 325 326 327 326 325 325 325 322 322 322 326 326 327 329 327 328 329 324 326 326 334
302 302 302 302 301 301 301 301 301 301 302 302 303 304 304 305 309 309 310 311 319 323 324 327 323 324 323 325 326 324 322 321 321 321 321 324 325 326 327 326 325 327 322 323 325 325 325
302 302 301 301 300 300 300 300 301 301 302 302 303 305 307 307 309 308 308 312 323 324 322 323 323 323 324 324 324 326 322 321 319 321 320 322 324 326 325 324 324 323 322 323 328 332 329
301 301 301 300 300 300 300 300 300 301 302 303 303 306 307 311 309 308 316 313 318 321 324 324 323 323 324 324 325 326 322 322 323 319 322 320 323 325 325 326 324 325 325 324 327 328 329
301 301 301 300 300 300 300 300 300 301 302 302 303 305 309 316 310 311 312 312 315 320 321 322 322 322 323 322 323 325 324 323 323 321 318 320 322 323 327 325 325 326 324 327 322 329 331
301 303 303 301 300 300 300 300 300 300 301 303 304 308 310 316 313 315 309 311 315 317 318 321 321 321 322 322 323 324 325 324 324 324 318 320 321 324 326 325 325 328 327 324 323 324 327
303 304 304 302 300 300 300 300 299 299 302 303 304 307 316 314 317 315 313 314 316 315 317 317 320 321 322 323 323 325 325 324 325 325 322 319 318 323 323 325 324 326 326 324 325 327 324
303 303 304 303 300 300 300 299 298 299 303 303 304 308 312 316 316 316 316 319 317 316 315 317 319 321 322 323 325 327 328 329 326 325 324 322 319 324 323 324 325 327 326 326 322 322 326
301 302 303 303 302 299 299 299 298 298 301 304 307 310 317 316 316 317 315 318 320 322 320 321 321 321 322 323 325 326 327 328 329 326 327 325 318 322 325 324 325 327 327 327 325 325 325
302 301 302 302 302 301 299 299 298 298 300 307 309 313 312 311 312 308 312 318 322 323 324 324 321 326 327 324 326 330 333 333 331 328 331 322 321 324 323 326 328 328 328 327 327 325 328
299 301 301 302 302 302 302 299 298 298 299 313 313 313 314 310 309 312 312 319 317 319 323 323 328 328 327 328 332 333 331 331 331 328 326 319 323 324 326 327 327 328 329 330 330 328 330
301 301 302 302 301 302 301 301 298 298 299 305 307 310 313 310 309 311 313 315 315 315 324 327 327 327 329 327 326 327 330 328 329 329 327 322 323 324 325 327 329 330 331 329 330 332 329
301 301 301 301 301 302 302 302 299 298 299 303 306 307 311 310 309 312 311 314 315 316 318 326 327 326 328 328 328 331 330 328 330 330 327 325 322 321 325 325 329 327 330 333 334 334 333
301 301 301 301 301 301 302 302 302 301 299 299 301 307 310 308 310 311 313 313 312 315 318 321 321 323 326 326 324 327 329 328 331 329 330 330 331 333 325 324 326 332 332 333 333 335 334
301 300 301 301 300 301 301 301 302 301 302 298 301 308 309 308 308 310 310 311 310 311 317 320 320 325 326 320 325 328 331 332 334 330 329 329 329 334 334 330 330 330 333 333 331 335 332
300 300 301 300 300 300 301 301 301 302 302 299 301 307 309 311 310 309 309 309 309 309 314 317 313 321 328 322 322 324 325 326 334 333 332 331 333 333 333 334 330 331 334 333 333 332 334
300 300 300 300 301 301 301 301 301 302 303 300 304 307 307 309 309 308 309 311 311 310 311 312 317 320 326 328 326 322 323 324 329 332 334 338 338 335 333 332 333 332 334 338 333 333 333
300 300 300 299 300 300 300 301 301 301 303 300 301 307 308 307 308 308 309 309 308 310 311 309 311 317 320 321 324 325 329 328 328 336 333 338 336 340 338 337 332 330 330 331 331 332 332

GFSGBSN_850_thetae_003.txt.gz
Theta_e
305 305 305 306 306 306 306 307 307 308 308 309 310 310 311 312 314 316 317 317 317 318 319 319 319 319 322 320 320 321 321 322 320 320 321 323 323 329 330 329 329 330 338 339 341 341 342
305 305 305 305 305 306 306 306 306 307 307 308 309 309 310 311 312 314 316 317 317 318 319 319 320 319 321 317 321 321 322 323 321 320 322 324 323 327 330 327 327 337 339 339 341 339 341
304 304 305 305 305 305 305 305 306 307 308 307 307 308 309 310 311 312 314 316 316 318 319 320 320 321 321 325 321 322 324 324 323 320 322 323 323 326 328 327 328 340 337 337 338 340 339
303 303 304 304 304 304 305 305 305 305 307 308 307 308 309 310 311 312 313 315 317 319 320 321 324 326 325 325 322 322 326 326 324 323 322 321 321 325 328 328 334 337 334 341 339 341 342
304 304 304 304 304 304 304 304 305 305 305 306 307 308 309 310 310 311 313 314 316 318 319 327 325 324 326 325 325 325 327 327 323 322 323 322 324 325 326 325 325 328 340 337 340 340 342
304 304 304 305 305 305 305 305 305 305 305 306 306 307 308 309 310 311 313 314 315 319 328 327 323 326 324 325 329 328 326 327 325 320 322 322 322 321 321 323 327 338 333 340 342 342 339
304 303 303 303 303 304 304 305 305 305 305 305 306 307 307 309 309 311 313 313 320 322 319 320 322 323 324 325 325 328 329 327 326 320 318 320 320 322 321 326 326 329 332 339 340 337 343
303 303 302 302 302 303 303 303 304 304 305 305 305 306 307 308 309 311 312 314 316 315 314 319 321 322 324 324 326 328 328 327 321 317 317 319 320 320 324 327 327 326 326 331 335 338 342
302 301 301 301 301 302 302 302 303 303 303 304 305 306 306 307 309 310 312 312 315 313 315 320 322 322 322 324 325 326 327 326 320 317 317 317 319 323 328 329 330 326 328 329 335 337 342
301 301 301 301 301 301 302 302 302 302 302 303 304 304 305 307 308 309 311 311 312 315 316 319 322 322 323 324 325 326 328 327 320 320 318 319 320 325 329 330 328 329 326 329 334 338 343
300 300 301 301 301 301 301 301 301 301 301 302 303 303 304 304 306 308 309 312 315 319 324 322 325 325 323 324 325 325 328 326 322 319 318 319 322 323 327 330 327 329 326 326 331 335 338
301 300 301 301 300 301 301 301 301 301 301 302 303 303 303 304 306 309 312 311 317 318 323 325 326 324 324 324 325 325 327 327 325 319 320 319 323 323 324 326 327 328 326 321 323 328 338
300 300 300 300 300 301 300 301 301 301 301 302 302 304 303 304 306 307 308 309 316 319 320 323 322 321 322 323 323 324 321 320 321 319 319 323 322 323 326 326 325 323 321 322 329 335 337
300 300 300 300 300 300 301 301 301 301 301 302 303 304 306 306 307 306 307 311 320 320 319 319 321 321 323 324 324 324 319 322 319 319 319 320 322 323 323 324 324 322 320 322 324 327 331
300 300 301 302 301 300 300 300 300 300 301 302 303 304 306 308 308 307 311 312 317 319 322 323 320 321 321 322 322 323 321 321 321 317 320 317 320 322 324 324 323 325 321 320 321 324 325
302 302 303 304 303 300 300 300 300 300 300 301 302 304 307 313 312 308 310 311 313 318 320 319 321 321 322 321 320 321 322 322 321 318 318 318 321 321 324 324 323 324 321 324 320 326 329
303 302 303 304 303 301 299 300 300 299 299 300 303 304 307 315 312 313 307 309 311 315 315 317 320 320 319 319 320 320 320 322 322 322 319 316 318 320 323 322 323 326 324 321 321 321 325
300 301 303 303 304 302 299 299 299 298 298 300 303 301 313 313 314 309 308 310 314 313 316 315 317 317 317 319 319 320 320 321 324 323 319 316 317 321 320 321 323 322 323 323 325 325 321
302 303 302 302 302 303 302 299 299 298 298 300 304 305 306 314 312 313 313 317 318 319 317 315 314 317 320 320 319 319 321 323 326 323 322 316 316 318 320 322 323 324 323 321 319 320 326
303 302 302 302 302 303 303 301 299 298 297 300 304 306 313 313 311 311 311 312 317 321 321 322 318 320 321 323 322 322 324 326 328 322 326 321 314 321 323 322 323 325 326 323 323 324 323
302 301 301 302 302 301 302 303 302 298 297 303 307 309 310 309 310 307 308 312 317 319 318 321 321 321 326 326 327 327 327 330 332 330 330 320 320 317 322 322 324 325 326 325 325 324 328
302 301 301 302 302 302 302 302 302 300 297 305 310 310 311 311 309 307 309 312 314 315 316 321 321 327 327 326 329 329 327 328 333 328 326 316 320 321 322 321 323 324 325 327 327 323 326
302 301 301 302 302 302 302 302 302 301 301 302 304 305 309 311 308 309 310 311 314 314 315 316 326 327 329 328 327 327 326 325 329 330 327 319 321 319 324 323 325 326 326 327 329 329 327
301 301 301 301 301 300 301 301 302 302 301 302 302 304 308 311 309 310 311 311 313 312 313 316 318 325 328 327 326 327 327 323 325 329 327 324 319 319 323 325 328 326 329 329 333 334 333
301 301 301 301 301 301 300 301 301 301 302 302 301 303 308 311 309 311 311 310 310 310 314 318 320 319 320 321 324 326 329 329 329 331 329 325 320 326 324 324 327 332 334 333 332 333 332
300 301 301 300 300 301 300 301 301 301 302 302 302 302 304 309 308 309 309 308 308 306 308 316 318 323 322 318 324 328 333 330 332 332 327 326 325 328 326 326 330 331 331 333 329 334 331
300 300 300 300 300 301 299 300 301 301 301 302 302 303 304 308 308 309 307 307 309 308 306 312 310 315 327 322 324 324 326 327 333 333 331 333 331 333 331 333 331 331 331 331 334 331 332
300 300 300 300 299 299 301 302 301 300 302 302 302 303 304 307 307 307 307 308 310 309 308 310 313 318 320 327 328 327 324 327 332 332 332 333 336 339 335 334 336 330 332 334 330 330 330
301 300 300 300 300 299 300 299 300 301 302 303 302 303 303 304 306 307 307 307 306 309 308 309 309 315 318 320 321 323 329 325 326 336 332 336 335 337 334 331 328 329 328 329 329 329 329

GFSGBSN_850_thetae_006.txt.gz
Theta_e
304 305 305 306 306 306 306 307 307 307 308 308 308 308 308 309 310 312 313 315 316 317 318 318 318 318 318 320 322 321 320 321 321 321 319 320 323 323 328 327 328 328 329 337 340 340 341
304 304 304 304 304 305 305 306 306 307 308 308 308 308 309 309 309 310 312 314 315 317 318 319 319 318 318 318 322 321 321 322 322 320 320 322 323 324 329 328 326 328 336 338 339 339 341
305 305 305 305 304 304 304 305 305 306 307 307 308 308 309 310 310 310 311 312 314 316 318 319 319 319 320 322 325 324 322 324 323 320 320 322 324 327 327 327 327 337 336 336 337 339 343
305 305 305 305 305 305 305 305 305 305 306 307 307 308 308 309 309 310 311 312 313 315 317 319 320 324 325 326 327 323 322 324 324 322 321 322 323 322 325 327 335 335 335 339 338 339 343
304 304 304 304 304 305 305 305 305 305 305 306 306 307 308 309 309 309 312 312 313 315 317 321 325 325 326 326 325 326 322 325 324 323 322 322 321 323 325 325 332 331 339 338 341 339 341
302 302 302 302 302 303 303 304 304 305 305 306 306 306 307 308 309 310 312 313 313 316 322 327 326 325 325 326 327 326 327 327 324 321 322 322 321 320 319 327 337 336 339 336 342 339 340
301 301 301 301 301 301 302 302 303 303 304 304 305 306 307 307 308 309 311 313 317 319 318 321 322 324 325 324 324 326 327 327 324 319 316 318 318 318 322 324 332 331 337 340 339 338 340
300 300 300 301 301 301 301 301 302 302 302 304 304 305 306 307 308 308 310 312 315 313 311 317 319 318 320 320 323 324 325 326 322 318 316 318 317 318 321 324 327 333 332 336 334 337 340
301 300 300 300 301 301 301 301 301 301 301 302 303 304 305 307 308 309 309 310 312 310 311 316 319 319 320 320 321 323 325 325 319 318 316 316 319 320 325 325 325 326 325 326 336 339 341
301 300 300 300 301 301 301 301 301 301 301 302 302 303 304 306 308 308 309 309 309 309 314 317 320 322 322 322 322 321 324 327 318 319 316 316 318 322 324 327 326 326 324 326 334 340 340
301 300 300 300 300 300 301 301 301 301 301 302 302 302 303 303 304 307 307 307 309 316 320 320 322 324 323 322 322 323 323 325 322 319 317 318 319 321 326 326 325 327 325 326 333 335 338
303 301 300 300 300 300 300 300 301 301 301 302 302 302 302 304 305 307 308 310 313 315 320 320 325 323 323 323 322 323 325 327 326 320 317 319 320 320 321 325 327 323 321 321 322 328 335
304 302 300 300 300 300 301 300 300 301 301 302 302 303 303 303 305 306 306 307 313 316 317 320 321 320 320 321 322 322 321 319 321 320 319 319 319 322 323 324 324 320 321 323 326 333 334
306 304 301 303 302 302 301 300 300 300 301 301 302 302 304 305 306 306 305 307 316 317 317 317 320 319 320 319 320 322 319 322 318 318 317 317 318 320 321 322 323 322 321 322 326 327 334
305 304 304 303 303 304 302 300 300 300 300 301 302 303 305 305 308 307 307 307 311 317 320 321 319 320 320 320 320 322 320 319 320 316 319 316 318 319 321 322 322 321 321 320 319 321 324
305 304 303 304 304 304 303 302 299 299 300 300 301 302 305 311 314 307 306 306 309 315 318 315 319 319 320 319 319 319 319 320 319 318 316 317 319 318 321 323 322 321 319 323 317 324 328
303 303 302 303 303 303 303 303 300 299 299 300 300 302 305 314 310 308 304 305 309 312 313 313 317 319 319 318 319 319 319 320 321 321 315 315 316 318 319 320 321 321 321 318 318 319 322
304 303 303 303 303 303 303 304 303 299 299 299 300 299 308 310 311 305 306 306 311 312 314 314 315 316 315 317 316 317 318 319 321 319 318 314 316 319 318 319 320 321 320 320 323 321 319
305 303 303 302 301 302 303 303 302 302 298 298 301 302 305 310 311 310 310 314 315 318 317 318 316 314 315 317 319 316 317 319 320 319 319 316 314 319 318 317 321 321 320 317 316 317 321
303 302 303 302 302 301 302 302 302 302 299 299 303 302 310 310 309 307 306 308 313 317 318 318 318 317 317 319 317 318 321 324 327 326 330 326 313 318 321 320 320 323 323 320 320 320 321
303 303 303 302 301 302 302 303 303 302 300 299 305 304 308 308 309 308 306 308 313 315 316 318 318 319 319 319 322 319 320 322 327 328 324 315 319 317 322 319 321 322 323 322 322 322 325
303 303 302 301 302 302 302 301 302 302 301 302 306 307 307 308 309 305 308 309 313 314 313 315 318 320 319 321 322 324 324 325 328 330 327 316 318 315 321 320 320 322 322 324 324 323 323
302 302 301 301 302 301 301 301 302 302 302 301 302 303 305 308 308 308 307 310 311 312 313 314 315 317 323 324 321 324 325 324 327 327 330 322 317 316 321 318 318 320 322 322 324 323 324
301 300 301 302 302 301 301 302 301 301 302 301 301 301 305 306 310 311 310 310 310 311 311 311 311 313 322 320 322 323 322 322 323 324 326 331 319 315 322 321 322 322 323 323 325 330 328
300 300 300 300 302 302 300 302 301 300 302 302 301 301 304 307 308 309 310 309 308 308 308 312 313 316 316 318 321 324 325 328 328 330 330 326 318 320 320 319 323 332 332 331 332 332 331
300 300 300 300 301 301 300 301 301 300 301 302 302 302 301 303 306 307 309 309 308 307 306 309 311 312 322 317 322 325 328 329 332 330 327 326 325 325 322 323 330 329 330 331 330 333 329
301 301 301 301 301 301 301 301 300 301 301 301 302 301 303 304 305 306 307 307 308 308 307 307 308 312 321 319 322 323 324 325 333 333 333 332 333 333 330 330 330 330 329 330 333 329 328
302 301 301 300 301 300 300 300 301 302 302 301 302 302 301 302 303 304 305 307 307 307 308 309 311 317 319 324 325 325 323 326 330 329 331 332 337 338 333 334 335 328 330 331 330 329 330
302 301 301 301 300 301 300 299 301 301 301 302 303 302 301 302 304 306 305 305 306 307 308 307 307 308 317 318 320 321 328 325 327 336 330 335 334 334 331 331 327 326 325 328 329 328 327

GFSGBSN_850_thetae_009.txt.gz
Theta_e
305 305 305 305 305 305 305 305 305 306 306 307 308 308 309 309 310 310 311 311 312 314 316 317 318 319 318 317 319 321 321 321 320 320 320 321 322 323 325 328 329 332 331 336 339 342 344
305 305 305 305 305 305 305 305 305 305 305 306 307 308 308 309 310 310 311 311 312 313 315 317 318 318 318 319 319 322 322 321 322 320 321 321 323 323 325 331 331 329 333 337 340 342 343
305 305 304 304 304 304 305 305 305 305 305 306 306 306 307 308 309 310 311 312 312 312 314 316 317 318 319 320 319 321 325 323 323 322 321 320 322 324 328 330 328 338 341 341 340 342 344
303 303 303 304 303 304 304 304 304 304 305 305 306 306 307 308 308 309 310 312 313 313 314 315 317 320 321 319 323 327 326 322 324 321 321 320 323 323 324 328 337 340 341 343 341 342 344
302 302 302 302 302 302 303 303 303 303 304 304 305 305 307 308 308 309 310 312 313 313 314 316 321 323 325 324 325 326 325 323 322 322 322 321 323 323 324 331 340 339 343 343 343 342 345
302 301 301 301 301 301 301 302 302 302 303 304 304 305 306 307 307 309 309 312 313 314 319 323 325 325 324 325 327 325 326 324 322 323 321 321 321 323 326 333 336 341 344 343 345 343 345
303 301 301 301 301 301 301 301 301 302 302 303 304 305 306 306 306 308 309 313 315 317 316 321 322 325 325 323 323 324 326 325 322 322 323 321 322 322 326 332 335 339 343 344 343 342 344
305 303 301 300 300 301 301 301 301 301 301 302 302 303 305 306 307 307 309 308 311 310 311 316 317 316 318 319 320 322 324 325 323 324 319 321 322 323 326 328 333 340 342 344 341 342 344
307 305 302 300 300 300 300 301 301 302 302 302 302 302 304 306 307 309 307 310 311 307 310 314 316 317 319 317 319 320 322 325 325 326 321 321 322 322 325 328 330 338 341 342 343 341 343
308 307 305 303 301 300 300 300 301 301 301 302 302 302 303 305 306 306 309 309 307 308 318 321 320 321 321 320 321 321 321 325 323 326 322 321 321 322 324 329 330 333 336 340 342 343 345
308 307 306 304 302 300 300 301 301 301 301 301 301 302 302 302 303 305 305 307 308 314 322 321 322 323 322 323 320 322 322 324 326 324 323 324 320 322 324 327 329 333 333 335 339 342 342
308 307 307 305 302 301 300 301 301 301 301 301 302 302 301 303 304 305 306 306 314 320 321 322 325 324 323 323 323 323 322 323 325 326 321 325 321 322 325 327 329 328 330 331 336 338 339
307 307 306 306 305 303 301 301 300 301 301 301 302 302 302 302 304 304 305 306 317 320 319 321 323 322 322 324 324 323 324 325 327 329 328 326 324 322 323 327 329 329 331 333 336 337 336
305 305 306 305 304 303 303 302 301 300 300 301 302 302 303 304 304 304 304 310 316 318 319 319 321 321 321 322 324 322 324 325 327 328 328 327 326 324 324 325 328 329 331 334 336 336 335
305 304 305 304 303 303 302 302 302 301 300 300 302 303 304 303 304 306 306 308 313 316 321 322 322 321 321 321 322 323 325 325 327 326 327 326 326 321 323 325 328 328 330 331 333 328 332
305 304 304 304 304 303 304 303 304 304 300 300 300 302 303 308 312 308 308 308 311 316 320 317 320 321 322 321 321 322 323 324 326 325 327 325 325 323 323 324 325 327 328 329 329 337 335
305 304 305 304 303 303 301 303 303 303 301 300 300 301 303 313 310 307 309 308 309 312 316 316 318 320 322 319 320 321 322 322 322 324 326 326 324 322 322 324 324 325 326 327 330 331 335
305 305 304 304 303 302 302 302 302 302 302 300 299 302 305 308 312 308 310 309 310 312 312 313 316 318 318 318 318 319 320 322 321 322 322 324 325 326 325 324 323 325 327 329 330 333 329
304 304 303 302 303 303 301 302 302 302 302 300 302 302 302 309 311 313 313 313 314 315 316 316 315 317 317 317 317 319 320 320 321 322 325 322 324 326 325 325 324 324 325 327 328 330 336
303 304 304 304 303 302 302 302 303 303 302 301 302 305 307 308 307 310 312 313 314 315 317 318 318 319 321 322 322 323 321 323 323 321 322 326 329 329 329 328 326 324 324 325 326 329 329
304 304 304 303 303 302 302 303 302 302 302 301 303 306 307 313 312 312 310 310 311 313 316 316 321 321 322 322 322 323 323 323 323 324 331 331 330 329 330 331 327 326 324 325 327 329 331
302 303 303 303 302 302 303 302 302 302 302 301 304 306 305 306 308 310 310 311 312 314 315 316 318 319 320 322 323 323 324 325 327 330 332 324 333 325 326 328 327 326 326 325 326 326 328
301 301 301 301 301 302 303 302 302 302 301 302 301 301 302 304 307 309 311 311 312 311 312 314 315 315 317 319 320 321 322 325 328 331 335 337 331 334 332 326 326 326 327 326 327 328 328
301 300 300 300 300 301 301 302 302 302 301 301 301 300 302 304 306 308 310 310 311 311 311 310 311 312 314 315 317 321 319 322 325 329 329 338 337 328 333 327 326 326 326 327 327 328 329
302 302 301 300 300 300 302 302 302 302 302 301 302 301 301 303 304 305 307 309 310 310 310 310 311 311 312 313 321 328 329 329 329 329 331 334 331 332 331 330 330 328 331 326 326 327 329
302 302 302 302 302 301 301 301 301 301 301 301 302 302 301 300 301 302 307 308 309 310 309 309 309 309 316 322 327 330 330 328 333 334 330 333 334 335 334 334 330 336 334 332 334 332 335
302 302 302 302 302 300 301 301 301 301 301 301 301 302 302 302 301 302 304 306 307 309 309 309 309 311 319 327 327 330 329 329 331 334 335 339 337 336 340 338 332 333 331 332 335 335 334
302 302 302 301 301 300 300 300 300 301 302 302 302 301 302 302 302 301 303 304 306 307 309 307 309 314 321 329 331 329 329 330 334 334 335 335 338 339 339 340 338 328 332 337 336 333 333
301 302 301 301 301 302 301 301 301 301 301 301 302 302 302 302 302 302 301 304 304 305 306 307 308 307 312 320 324 326 334 331 335 335 332 337 335 338 336 336 328 325 327 329 333 332 333

GFSGBSN_850_thetae_015.txt.gz
Theta_e
305 304 304 303 303 303 303 304 304 304 305 305 306 306 307 308 309 310 310 311 311 312 312 312 313 315 316 324 323 324 322 320 320 325 331 330 331 332 337 333 334 336 338 336 336 339 340
308 306 304 303 303 302 303 303 303 303 304 305 305 306 307 307 308 309 310 311 312 312 312 312 312 313 314 323 322 324 323 325 329 329 327 328 330 330 332 332 334 336 335 336 336 338 340
308 308 307 305 303 302 303 303 303 303 303 304 305 305 306 307 307 308 309 311 312 313 313 313 313 312 320 323 322 322 327 327 328 328 328 325 327 327 328 332 332 334 337 339 338 339 341
309 309 308 307 304 302 301 301 302 302 303 303 304 304 305 306 307 308 309 310 312 313 313 314 313 313 323 324 324 323 322 323 325 327 327 325 324 326 328 330 333 335 337 340 339 340 342
310 309 309 309 308 307 304 302 302 302 302 302 303 304 304 305 306 308 309 310 312 313 314 314 316 323 326 326 325 323 323 324 326 325 328 326 326 325 327 330 334 337 338 339 340 340 344
311 310 309 309 309 309 308 307 304 303 302 302 302 303 304 305 305 307 309 310 312 314 318 317 325 329 326 328 327 327 327 326 325 326 326 326 325 328 328 332 335 339 339 340 344 341 345
311 310 310 309 309 309 309 309 308 305 303 302 302 304 304 304 305 307 309 314 322 327 327 327 329 327 327 326 328 326 327 326 325 326 327 325 326 327 329 332 334 337 339 338 341 340 343
311 311 310 310 309 309 309 309 308 307 306 304 303 303 305 305 305 307 310 316 316 313 316 318 320 322 324 326 326 326 327 325 325 328 327 326 326 327 330 332 334 336 338 340 340 340 343
311 310 310 309 309 309 309 308 308 307 306 305 304 302 304 306 306 311 311 316 313 313 317 319 321 321 322 322 323 325 326 327 326 328 327 327 326 327 329 332 334 335 337 339 340 345 344
310 309 308 308 308 308 308 308 308 307 307 306 305 303 303 305 310 308 314 314 312 312 320 324 324 323 322 322 324 322 324 327 328 327 328 327 328 327 328 330 333 335 336 337 339 343 347
308 308 307 307 306 306 307 306 307 306 306 306 306 305 303 302 304 310 311 310 311 314 324 327 326 325 325 325 328 326 324 325 329 329 328 328 327 327 327 329 331 333 335 337 338 342 347
308 308 308 307 306 306 306 305 304 304 304 304 304 305 303 306 308 310 310 310 313 321 325 327 327 327 328 327 328 327 325 325 326 329 329 328 328 328 328 328 330 332 334 337 337 339 343
308 308 308 308 306 305 305 306 305 303 302 302 302 303 304 303 308 311 309 311 318 322 326 327 327 327 328 328 328 328 327 327 328 329 330 329 329 328 327 327 328 330 333 337 340 339 340
308 308 307 308 307 306 305 303 303 302 301 301 301 302 306 308 310 309 309 313 318 323 324 326 327 328 328 328 328 328 328 327 327 329 330 331 330 329 328 327 327 329 332 335 341 340 340
308 307 307 307 306 305 304 303 303 303 301 302 302 306 308 309 311 309 311 314 318 321 325 325 326 327 328 328 328 328 329 328 328 328 331 331 331 330 328 327 327 328 331 333 336 338 340
306 307 307 306 305 304 304 304 304 303 302 303 304 308 309 310 311 310 313 315 318 320 323 323 325 326 328 328 327 328 329 329 328 328 330 331 332 331 329 328 327 327 330 333 338 344 344
305 305 305 304 304 304 304 304 304 303 304 304 308 308 311 311 312 313 316 315 316 316 318 320 322 325 326 327 329 328 327 328 329 329 328 329 331 332 331 329 328 327 328 332 334 337 340
304 304 304 305 304 305 305 304 304 303 303 306 307 312 309 310 313 314 316 317 316 318 317 318 319 322 325 326 326 328 328 328 328 329 329 329 331 333 331 331 329 328 328 329 337 340 337
303 304 304 304 304 304 304 304 303 303 303 305 308 309 309 308 311 312 314 316 317 317 318 318 318 318 322 324 326 326 327 327 326 328 330 330 331 333 334 330 329 329 328 329 330 335 343
303 303 302 302 302 302 303 304 304 303 303 304 306 311 310 309 310 311 312 314 316 316 317 318 317 318 318 320 323 325 326 326 326 326 326 329 332 333 335 333 330 329 327 328 329 333 335
303 303 302 302 302 301 302 302 303 303 303 303 306 309 309 312 313 312 313 316 315 317 317 317 318 318 318 319 320 322 323 325 325 325 326 328 332 333 332 332 332 329 327 327 328 330 334
302 303 303 302 302 302 301 301 302 303 303 303 306 308 307 308 309 310 311 312 310 311 314 315 317 318 319 319 319 320 322 324 325 325 326 327 331 332 332 331 330 331 331 329 328 327 329
302 302 302 303 303 303 302 301 301 301 303 303 305 306 306 306 308 309 308 310 311 312 311 313 315 317 321 320 320 321 323 322 324 327 328 329 331 332 334 333 334 333 331 331 331 331 329
301 301 302 303 302 303 303 303 302 302 302 303 303 304 305 307 307 309 309 307 309 310 312 311 310 313 315 314 316 319 322 325 326 325 326 328 333 332 335 335 338 335 334 332 331 332 332
301 301 301 303 302 302 302 303 303 303 302 303 303 302 302 307 305 307 308 308 307 307 310 309 308 310 310 313 319 322 324 324 325 326 329 329 331 333 335 335 336 336 336 338 340 339 334
301 301 301 301 302 302 302 302 302 302 302 302 303 302 301 303 306 306 307 307 308 308 310 310 309 310 311 315 316 321 323 323 324 324 326 330 333 336 336 336 338 337 338 337 338 338 333
301 300 301 302 303 302 302 302 301 301 301 302 303 303 302 301 303 304 306 307 307 308 311 311 312 311 311 313 316 319 320 321 324 327 326 328 332 333 335 337 335 339 337 335 339 338 343
301 301 301 302 302 302 301 302 302 302 302 302 302 303 302 303 303 304 305 305 305 306 309 310 312 313 315 319 320 319 320 322 325 329 331 329 333 333 335 334 335 337 337 339 342 340 341
302 301 302 302 302 301 302 302 302 301 302 302 302 303 302 301 303 305 305 306 306 306 307 307 309 310 313 319 322 323 328 331 329 329 330 332 332 333 335 337 339 336 337 337 338 340 341

GFSGBSN_850_thetae_021.txt.gz
Theta_e
314 313 313 311 310 309 309 310 310 309 308 307 306 306 306 306 307 308 308 309 310 311 312 312 313 312 311 314 318 322 321 322 321 320 320 323 324 327 329 333 334 337 339 340 339 341 342
313 313 313 313 312 312 311 310 309 310 310 309 308 307 307 307 307 307 308 309 310 311 311 312 312 312 311 316 320 322 322 323 323 322 321 325 327 328 332 333 333 336 337 335 339 341 341
313 313 313 313 312 312 312 312 311 311 310 310 310 310 308 308 307 308 309 309 310 311 311 311 312 311 311 316 321 323 324 324 325 325 325 326 328 329 331 331 333 333 334 333 335 336 339
313 313 312 312 312 312 312 312 312 312 312 312 311 311 311 310 309 309 310 310 310 311 311 311 312 312 312 320 321 322 325 325 325 326 328 327 327 328 329 330 331 330 329 329 332 335 338
314 313 312 313 312 312 312 312 312 312 312 312 313 313 312 312 311 310 311 311 311 312 311 311 312 314 323 325 323 323 324 324 327 328 328 328 328 327 327 326 327 327 328 329 331 335 338
311 311 311 311 310 310 310 310 310 310 310 311 312 313 313 313 312 311 311 311 315 320 319 318 323 326 323 324 326 326 325 324 325 326 325 328 328 325 324 323 327 326 328 329 331 336 340
311 310 310 310 309 309 308 308 307 307 308 309 309 310 312 314 313 311 310 315 318 322 326 329 326 322 322 325 327 327 326 325 324 323 323 326 324 326 324 323 326 328 329 330 332 338 343
312 311 310 309 309 309 309 308 306 305 305 307 308 308 310 313 314 310 313 315 314 316 315 315 316 321 327 328 330 328 327 324 324 322 324 324 325 326 327 326 326 327 328 330 332 339 343
311 311 310 309 308 308 309 308 307 305 303 303 304 305 308 311 314 313 314 315 315 313 313 314 316 316 317 323 326 329 328 325 324 325 326 324 327 328 327 327 328 327 327 329 332 339 341
310 310 309 309 309 308 308 308 307 306 304 303 302 303 304 308 313 312 314 314 314 313 312 317 319 319 318 319 324 328 329 327 327 326 326 325 326 327 326 326 326 327 329 330 332 334 341
309 309 309 309 309 308 308 308 306 305 305 305 305 304 303 303 307 313 313 313 313 314 318 325 324 323 320 319 325 328 329 327 328 327 324 325 327 326 326 325 325 327 329 330 331 332 340
310 309 308 306 307 308 307 307 306 305 305 305 305 306 305 305 305 311 312 313 313 315 319 324 326 322 320 320 322 324 327 326 327 328 327 325 327 326 326 326 325 326 328 329 330 331 336
308 307 305 306 307 307 306 305 305 305 305 305 305 305 306 306 307 310 311 313 313 316 323 326 326 325 323 322 321 321 323 323 322 324 325 328 327 325 327 325 324 324 322 327 330 332 332
306 305 304 305 305 305 305 306 305 305 306 305 304 304 306 308 309 311 311 313 315 321 319 323 324 325 325 325 323 323 323 323 323 323 323 325 327 328 327 326 323 323 323 325 328 331 332
304 303 304 304 304 305 306 305 305 305 305 304 304 303 304 309 310 310 312 314 316 319 320 320 319 322 325 327 327 324 323 325 324 323 323 324 326 329 328 328 326 324 323 323 322 326 329
303 303 304 304 303 303 303 303 303 304 304 304 304 307 305 312 312 311 313 314 316 317 317 316 317 319 320 319 319 327 325 325 325 324 323 324 327 327 329 328 327 325 325 322 323 324 328
304 304 304 304 304 303 303 303 303 303 303 304 306 308 307 311 312 313 313 314 315 315 316 318 319 319 319 320 320 320 321 327 328 327 325 324 324 326 328 328 326 325 324 322 322 324 326
302 302 303 303 303 304 304 302 302 302 302 304 305 307 305 307 309 313 313 314 314 315 315 317 318 318 319 320 319 319 320 321 327 328 327 325 324 325 326 327 328 326 325 322 323 323 325
300 300 301 301 302 303 303 304 302 302 302 303 305 306 305 307 308 310 312 313 313 313 313 314 315 315 318 319 320 320 320 321 322 322 327 327 326 325 325 325 327 327 326 324 323 321 323
301 301 301 301 301 302 302 303 304 303 302 302 305 306 306 308 309 310 310 312 312 312 314 314 315 315 317 319 319 320 321 322 322 321 327 330 327 325 326 326 328 330 328 327 324 324 324
301 301 301 301 301 301 302 302 303 304 303 301 304 306 305 307 309 308 309 310 311 310 311 310 314 314 315 316 319 320 320 319 319 321 325 322 328 327 326 327 328 328 330 328 326 324 325
300 300 300 301 301 301 301 302 303 303 304 302 303 305 305 305 306 308 308 308 308 309 310 311 311 314 313 316 317 316 315 315 317 318 317 318 327 329 329 327 327 327 329 331 328 327 327
301 301 301 302 301 301 301 302 303 303 304 302 303 304 304 305 305 306 307 308 309 309 310 310 310 310 311 313 313 313 313 313 314 317 318 319 322 328 327 329 330 327 327 329 331 329 328
302 301 302 302 302 301 301 302 303 303 303 303 304 304 304 304 304 305 305 306 308 308 309 310 310 310 310 310 311 312 314 316 317 319 319 319 321 326 327 331 333 331 330 330 331 332 328
301 302 303 303 303 302 302 303 303 303 303 304 303 304 304 305 304 304 305 306 307 307 308 308 309 309 311 311 313 315 317 318 319 320 320 321 321 325 329 329 329 330 329 332 331 330 333
302 303 302 302 302 302 302 303 303 303 303 302 303 303 304 300 304 305 305 305 306 308 308 308 307 308 311 313 315 317 320 321 323 323 320 321 322 327 327 328 329 329 330 331 336 338 342
303 302 302 302 302 302 302 301 302 302 302 302 302 302 304 301 303 304 305 306 306 307 308 308 309 307 308 314 315 316 316 318 322 326 327 325 331 330 327 326 328 330 328 335 338 338 341
301 301 301 302 302 302 301 301 302 302 302 302 303 303 304 304 304 304 304 305 306 306 306 307 309 308 310 313 313 315 315 316 323 324 327 330 327 330 330 330 332 337 335 336 336 343 343
301 301 302 302 302 302 302 302 301 301 302 302 302 304 303 305 305 304 304 305 305 306 307 307 308 308 309 314 315 317 318 319 324 329 324 328 329 334 332 341 338 340 341 340 346 347 349

GFSGBSN_850_thetae_024.txt.gz
Theta_e
317 316 316 315 314 314 314 314 314 314 313 311 311 311 311 310 309 309 309 308 308 308 309 310 311 311 311 311 315 321 322 321 322 323 322 323 325 323 324 325 328 335 335 341 341 341 341
318 317 315 315 315 315 314 315 315 315 315 315 315 313 312 312 311 310 310 310 310 309 309 310 310 310 310 310 319 319 320 320 321 321 320 321 323 323 325 327 328 331 332 333 337 340 340
316 314 313 313 313 313 313 313 314 314 315 315 316 316 316 314 312 312 312 311 311 310 310 310 310 309 310 317 319 322 321 323 322 322 323 322 320 325 326 327 330 331 330 330 329 333 339
314 312 312 312 311 311 311 310 311 311 311 312 312 313 316 316 316 314 314 313 312 311 311 311 310 309 312 318 320 320 319 323 323 322 325 324 323 324 326 328 327 327 326 327 329 339 340
313 312 311 311 310 310 310 310 309 309 309 310 310 310 312 314 315 316 315 314 311 313 315 312 311 312 315 318 321 323 321 324 325 325 327 327 326 326 326 324 322 323 326 326 326 336 340
312 312 311 310 309 309 309 309 308 307 306 306 307 307 310 312 314 315 318 312 315 321 322 320 321 321 319 321 325 325 323 325 323 324 327 327 327 322 320 319 323 325 325 325 326 330 340
311 311 311 310 309 309 308 308 308 307 306 304 303 303 305 310 312 315 318 314 315 318 317 316 321 318 318 323 322 326 323 324 323 325 322 323 323 325 322 321 323 325 325 325 326 329 339
310 310 310 310 310 309 308 308 308 307 305 305 305 304 304 307 310 314 312 313 313 312 310 313 314 317 318 320 325 329 325 323 323 321 319 320 321 322 323 323 322 323 324 325 325 327 339
310 310 309 309 308 307 308 308 307 307 306 305 305 306 306 305 310 312 313 314 313 313 310 312 314 315 315 317 321 325 328 325 321 319 319 320 321 323 325 325 324 323 323 324 325 327 343
310 310 309 307 305 306 307 307 307 306 306 306 305 305 305 306 310 310 313 313 313 313 309 312 314 316 315 317 317 322 327 325 321 322 320 320 323 324 324 326 324 321 324 325 326 327 334
309 307 306 305 305 306 306 305 304 305 304 304 304 304 305 305 306 307 311 312 312 313 318 322 319 319 317 317 320 323 327 324 323 322 321 323 324 324 325 326 325 324 324 325 327 326 327
305 304 304 303 303 303 304 304 305 306 306 305 304 303 304 305 305 309 310 312 312 311 316 319 321 317 316 317 320 325 325 327 326 324 323 323 325 324 324 325 325 325 322 323 326 326 328
303 303 303 303 303 303 303 303 303 304 304 304 304 303 303 303 305 307 308 311 309 312 317 323 317 316 316 316 318 320 327 326 325 322 326 326 325 323 325 323 323 322 319 320 323 325 327
303 304 304 304 303 303 303 303 303 304 304 304 304 303 303 303 303 304 310 308 311 315 316 317 316 318 320 318 317 319 318 327 325 319 319 325 326 325 323 322 324 320 319 320 322 324 326
303 303 303 303 304 304 304 304 303 302 303 302 303 302 302 306 311 307 310 311 310 313 315 315 315 316 317 318 317 317 318 319 325 321 320 319 323 324 326 324 323 322 319 319 318 321 323
301 301 301 301 302 302 303 303 304 303 302 302 302 303 303 308 306 311 308 311 311 313 314 315 315 316 316 317 317 317 316 319 320 321 321 320 320 321 324 325 326 322 320 320 315 320 322
300 300 300 300 300 301 301 302 303 304 303 302 302 305 303 305 304 311 309 309 313 313 314 313 314 314 315 316 317 317 318 318 320 321 321 321 319 321 323 323 325 325 322 318 318 319 321
300 300 301 300 300 300 301 301 302 303 303 303 303 302 302 306 303 305 310 309 311 312 313 313 313 313 313 314 314 316 318 318 319 319 318 319 319 320 321 322 325 325 324 319 322 319 319
300 300 300 300 300 301 301 301 302 302 304 303 302 304 304 306 303 303 306 309 309 311 311 312 312 311 313 314 316 316 318 319 315 318 318 322 318 321 320 320 320 323 324 323 314 316 321
301 300 300 300 300 301 301 300 301 302 303 303 303 302 304 305 306 305 306 309 309 309 310 310 311 313 313 314 314 316 317 316 314 316 319 316 321 321 324 324 322 322 324 323 322 323 322
301 301 301 301 300 301 301 300 301 302 303 304 302 302 304 302 304 305 305 307 308 308 308 309 310 312 312 314 315 316 316 315 314 317 314 314 316 320 320 322 324 325 325 325 323 324 323
301 301 300 300 301 303 303 302 301 302 303 304 303 303 303 304 304 303 304 307 308 308 308 309 310 310 310 311 312 313 313 312 312 313 312 312 316 317 323 325 324 325 325 326 325 325 323
301 302 302 303 304 303 303 303 302 302 303 303 303 303 304 303 302 301 302 303 304 306 308 309 309 309 309 308 310 309 310 310 310 312 312 313 314 316 320 323 324 325 326 326 326 325 324
302 302 303 302 302 303 302 301 302 303 303 303 303 303 300 305 304 303 303 304 305 307 307 307 307 308 308 308 310 310 310 310 310 311 312 315 316 315 320 321 325 324 325 325 324 326 325
301 302 301 301 302 302 302 302 303 303 303 303 303 303 302 303 303 303 303 304 304 304 304 307 307 307 308 310 309 310 312 313 314 313 314 315 317 319 321 324 325 329 327 326 324 325 327
301 301 301 301 302 302 301 301 301 302 302 303 303 302 303 302 302 303 303 303 303 302 305 307 305 307 306 309 311 311 314 317 320 320 317 317 317 320 322 325 327 326 328 328 328 330 339
301 301 301 301 302 302 301 301 302 302 302 302 302 302 303 302 303 303 302 303 304 303 302 304 306 306 309 309 315 311 312 314 319 320 322 327 325 322 322 327 322 324 327 333 333 332 339
300 301 301 300 301 301 301 301 301 301 301 301 302 303 303 303 303 303 303 303 303 304 305 305 307 306 305 310 313 311 311 311 317 321 325 327 329 329 327 328 327 329 333 330 330 340 339
301 301 301 301 301 301 301 301 300 300 301 301 302 302 302 303 304 303 303 304 304 304 304 305 307 307 307 307 307 311 314 314 316 322 323 327 327 330 328 333 326 335 338 344 345 346 346

GFSGBSN_850_thetae_027.txt.gz
Theta_e
316 314 313 313 313 314 314 314 315 315 315 314 314 314 315 316 314 313 312 312 310 310 309 309 309 309 310 311 315 320 321 320 318 315 323 324 327 337 323 323 338 346 343 340 341 342 341
313 313 312 311 311 311 311 311 311 312 313 313 313 313 314 315 316 317 315 313 313 311 310 310 309 309 309 308 319 319 318 319 319 317 320 323 324 325 323 322 325 327 333 332 333 334 341
313 313 312 311 310 310 310 310 309 308 308 308 310 310 311 313 314 316 318 316 315 314 312 311 309 308 309 315 319 319 318 319 320 322 322 322 322 323 323 322 325 328 329 328 328 331 337
312 312 311 311 310 310 309 308 309 308 307 306 305 305 307 310 311 314 319 320 317 314 312 312 310 309 309 315 317 318 319 320 320 320 321 322 322 322 323 325 325 325 325 327 329 334 335
311 310 311 310 310 310 309 308 308 308 307 306 306 305 305 306 308 310 318 319 314 314 317 318 311 310 312 315 316 318 320 320 321 322 321 322 325 323 323 323 321 321 326 326 326 335 337
310 310 310 310 310 309 308 307 307 307 307 306 306 306 307 307 307 309 317 315 315 320 320 320 320 318 317 318 325 326 323 320 320 323 323 325 325 320 317 318 324 324 324 324 326 329 338
310 310 310 309 307 305 306 307 307 307 307 307 307 306 306 307 308 310 314 314 314 315 313 316 321 320 319 320 322 325 325 320 323 322 320 323 323 321 322 319 321 324 325 324 325 329 338
310 310 308 307 305 305 306 306 305 304 304 304 304 305 306 307 308 311 310 311 310 309 308 314 317 314 318 318 318 323 324 321 319 318 320 319 323 323 322 321 322 322 323 323 323 328 336
307 306 305 304 303 303 303 303 303 303 303 303 303 303 304 305 308 310 310 310 310 310 307 312 315 315 314 316 318 321 322 322 320 319 318 322 320 321 323 323 322 321 321 323 323 325 336
304 303 303 302 302 303 302 302 302 302 302 302 302 302 303 304 307 307 310 310 310 311 308 312 312 314 314 316 317 319 323 322 320 321 318 317 319 321 322 323 322 321 321 323 324 324 324
302 302 302 303 303 303 303 303 303 303 303 303 302 302 302 302 303 304 308 309 311 311 319 321 316 315 314 316 318 318 320 325 321 320 318 319 319 320 322 323 322 324 323 323 324 323 324
302 302 303 303 303 303 303 303 303 303 303 303 303 302 302 303 302 305 304 308 312 311 316 318 318 315 314 315 316 319 322 325 324 320 319 321 322 320 321 322 322 324 323 320 322 320 323
301 301 301 301 301 301 302 302 303 303 304 303 303 302 302 302 303 302 303 308 308 311 315 319 315 315 316 315 316 320 321 322 322 322 321 321 321 321 322 322 322 322 318 320 319 321 324
300 300 299 300 300 300 300 301 301 302 303 303 303 303 302 308 308 306 303 306 309 314 313 314 315 314 317 316 316 316 323 323 323 320 322 323 324 322 320 322 322 319 319 317 319 320 323
299 299 300 300 300 300 300 300 301 301 302 303 303 302 303 306 305 308 309 308 309 311 314 314 315 315 315 315 315 316 314 324 325 319 321 321 323 322 324 321 323 321 320 319 317 319 319
300 300 300 300 300 300 300 300 301 301 302 302 303 302 303 305 305 306 306 308 309 312 313 313 314 313 313 314 315 315 316 316 317 322 319 318 320 319 323 323 320 321 316 320 311 321 322
300 300 300 300 300 300 300 301 301 302 302 302 303 303 303 304 306 308 307 307 310 311 312 312 312 312 313 313 314 314 316 317 318 318 317 316 316 320 320 320 324 322 320 317 315 314 320
300 300 300 300 300 301 302 302 302 301 302 303 303 300 303 304 302 301 304 305 310 310 311 311 312 311 312 314 314 313 314 316 316 317 318 317 312 320 322 319 322 322 323 317 318 318 316
299 300 301 302 302 303 302 303 301 301 302 303 303 302 303 305 303 303 304 307 309 309 308 309 310 310 312 313 314 316 316 316 315 315 319 318 316 316 317 318 318 320 321 322 320 316 322
300 300 301 302 302 303 303 304 302 301 302 302 302 301 304 304 304 304 304 306 308 308 308 308 310 312 312 312 312 314 315 316 313 314 318 314 313 317 319 318 319 318 321 322 321 322 323
301 302 302 303 304 303 304 303 303 302 302 303 302 302 301 301 302 302 303 305 308 308 308 308 308 309 311 312 313 314 313 313 312 314 311 311 315 315 317 318 320 321 320 321 320 323 323
302 302 303 302 302 303 303 303 302 302 303 303 303 303 303 302 303 301 301 305 307 305 306 308 309 307 308 309 310 309 310 310 311 311 309 309 315 314 317 319 320 322 321 322 322 323 321
301 301 301 301 301 302 303 302 302 303 303 303 303 302 303 304 303 303 302 303 303 304 306 307 306 306 307 308 307 307 308 309 308 310 309 311 314 315 317 317 319 322 322 322 322 322 322
301 301 301 301 301 301 301 302 302 302 303 302 303 303 302 303 304 304 303 303 303 304 305 305 304 307 307 306 308 308 308 307 308 308 309 311 312 314 316 317 324 322 322 323 323 323 321
301 301 301 301 301 301 301 302 302 301 302 302 303 303 302 304 303 303 303 303 303 303 302 303 304 306 305 307 307 308 308 310 309 309 309 310 312 315 318 319 320 323 324 323 322 322 323
301 300 301 301 300 300 301 302 302 301 302 302 302 302 303 303 303 303 302 302 302 303 303 304 304 304 306 304 307 310 311 312 310 316 310 310 311 317 318 320 324 323 329 329 327 324 323
302 302 301 301 301 301 300 301 302 302 302 301 301 302 302 303 302 302 302 301 303 302 302 302 303 305 307 304 308 309 310 311 314 315 315 314 315 317 319 322 322 327 332 333 329 326 335
303 303 303 303 303 303 302 301 301 300 300 301 302 301 302 303 302 302 302 303 302 302 303 303 303 304 302 306 308 310 310 311 311 314 317 320 323 321 319 324 324 330 332 338 334 336 336
303 303 302 303 303 303 304 304 303 302 301 301 301 302 302 302 303 303 303 303 303 303 303 303 303 303 305 304 306 307 310 311 311 316 315 319 321 323 323 325 326 328 330 328 330 335 340

GFSGBSN_850_thetae_030.txt.gz
Theta_e
313 313 312 311 310 310 310 310 310 310 310 309 309 310 309 309 310 313 314 316 315 313 312 311 310 309 308 309 314 319 320 319 320 316 318 327 349 349 331 335 344 346 342 341 341 341 341
312 312 312 312 310 310 310 309 308 308 308 307 307 307 307 307 309 310 311 313 316 316 314 313 311 310 307 305 316 317 318 318 320 317 319 323 339 346 327 327 334 333 339 339 337 335 336
311 311 310 310 310 310 310 308 307 307 307 306 306 306 307 307 307 308 310 313 315 319 317 315 311 309 307 312 316 317 316 319 317 315 321 324 328 331 326 322 323 324 325 326 327 328 331
310 310 310 310 309 307 306 306 307 307 307 307 307 307 307 307 307 308 311 315 318 320 316 313 312 309 308 314 314 314 316 316 318 316 318 323 324 324 322 323 323 323 324 325 326 328 329
310 310 309 308 306 305 306 306 306 305 305 305 304 305 305 307 307 308 310 315 317 316 316 318 314 309 311 313 314 316 317 318 318 319 319 321 322 322 322 321 319 320 324 324 326 327 336
309 308 306 305 304 303 303 303 303 303 303 303 303 303 304 304 305 311 310 313 316 320 321 318 318 314 316 317 321 317 316 316 316 317 322 323 323 319 316 317 319 322 322 323 325 329 335
305 304 303 303 302 302 302 302 302 302 302 302 302 302 303 304 304 310 311 313 313 313 312 320 322 317 318 318 323 323 323 316 318 320 319 322 321 322 320 318 320 322 323 325 324 326 336
303 302 302 302 302 302 302 302 302 302 302 302 302 302 302 303 303 308 311 310 306 306 307 313 316 315 319 319 318 323 322 317 319 318 317 317 322 322 321 319 321 321 322 322 322 323 333
302 301 302 302 302 302 302 302 302 302 301 301 301 302 302 302 303 305 308 308 306 308 306 311 313 313 314 316 316 318 320 318 317 317 319 321 320 322 323 321 321 320 322 322 324 323 329
301 301 301 301 300 300 301 301 301 301 301 301 300 301 302 302 303 303 306 307 305 310 306 311 311 313 313 315 314 318 322 320 319 321 316 318 320 323 321 323 320 319 319 322 322 321 323
300 300 300 299 299 299 299 299 299 300 300 300 300 301 302 302 302 302 304 304 307 309 318 319 312 313 315 316 317 316 320 320 318 318 317 319 317 320 322 323 320 323 321 320 321 320 321
299 299 299 299 300 300 300 300 300 300 300 300 300 300 301 302 305 306 304 303 310 311 317 318 314 313 313 314 314 318 319 322 321 319 319 318 319 320 319 320 321 321 322 317 317 317 321
299 299 299 299 299 299 299 300 300 300 300 300 300 300 302 307 304 306 307 305 308 311 314 316 314 314 314 315 314 316 318 321 320 319 319 320 320 319 318 320 320 321 318 320 321 321 324
299 299 299 299 299 299 299 300 300 301 301 300 300 301 302 306 304 305 304 305 309 312 312 313 314 313 315 314 315 315 317 321 320 320 319 320 320 320 319 319 319 318 317 318 322 320 323
299 299 299 299 299 299 299 300 301 302 300 300 300 301 304 303 305 303 308 306 308 310 313 313 313 314 314 313 315 315 314 320 322 318 320 318 320 321 320 320 320 318 320 316 316 316 316
299 299 299 300 300 300 299 301 302 301 300 301 301 302 303 304 305 305 305 306 307 310 310 311 312 312 312 312 313 312 314 315 317 317 315 319 321 320 321 320 320 318 316 320 312 321 320
299 299 300 300 300 300 300 301 303 302 301 301 302 303 303 303 305 307 303 305 307 309 310 310 311 311 311 312 313 312 313 316 315 317 316 314 316 319 319 321 322 318 317 315 317 314 319
300 300 301 302 302 302 303 303 304 303 301 302 302 299 303 305 301 300 302 303 306 308 308 309 309 311 313 313 313 313 316 316 314 315 319 318 310 318 319 319 321 323 321 314 318 317 312
301 302 302 303 304 304 304 304 303 303 302 302 302 302 303 303 301 300 302 304 306 308 307 307 308 311 311 312 312 314 315 315 313 315 318 316 314 315 316 318 318 319 321 316 319 314 320
301 302 302 303 302 303 303 303 303 302 302 302 302 299 303 303 302 302 301 302 306 307 309 307 307 309 309 311 311 312 314 314 312 315 316 313 312 314 318 319 317 317 318 319 320 322 322
300 300 301 301 301 301 303 303 302 302 302 303 302 301 302 299 300 303 301 302 306 305 306 307 309 307 307 309 310 311 311 310 310 312 310 310 315 315 316 316 317 318 319 319 319 321 322
300 300 301 301 301 301 301 302 303 303 303 302 302 303 302 302 302 303 302 301 303 303 304 306 309 306 306 307 308 308 307 309 309 309 308 307 314 314 316 317 317 318 319 320 320 319 319
300 300 300 300 300 301 301 302 302 301 302 302 302 302 302 303 302 303 302 303 303 302 304 307 306 306 305 307 306 306 306 307 307 308 308 308 312 313 316 316 317 319 319 319 319 319 319
301 301 301 301 301 300 300 301 302 302 301 302 302 302 302 303 303 303 303 302 303 303 304 304 303 303 305 304 305 305 306 306 306 306 307 308 310 311 314 315 319 318 317 320 320 320 319
303 303 303 303 303 302 301 300 301 302 302 302 302 302 302 302 302 302 302 302 302 302 301 302 303 304 303 305 305 305 304 307 307 307 307 307 308 311 315 316 317 317 326 330 330 328 321
303 303 303 303 303 303 303 303 301 301 302 302 302 301 303 303 303 302 302 302 301 300 302 302 303 304 306 302 305 308 307 308 311 310 306 307 308 311 313 317 320 321 330 330 331 333 327
302 302 302 302 302 302 302 303 304 303 302 301 301 301 302 302 302 302 302 301 302 302 303 301 302 304 306 305 306 307 306 309 310 312 310 308 310 311 312 318 318 319 328 332 330 329 332
302 301 301 301 301 302 304 304 304 305 304 302 301 301 302 302 302 302 302 302 302 302 302 302 301 302 302 305 305 305 308 308 308 308 310 310 312 312 312 317 317 324 328 335 330 331 332
301 301 300 300 301 303 304 305 305 305 305 305 303 303 301 302 302 302 301 301 301 302 302 302 303 302 304 304 305 305 307 308 307 310 310 312 314 316 313 314 316 323 329 330 329 331 332

GFSGBSN_850_thetae_033.txt.gz
Theta_e
310 311 311 310 310 310 308 307 307 307 307 307 307 307 307 307 307 308 309 311 314 317 317 314 313 311 309 308 312 318 318 317 319 319 329 344 345 346 347 348 349 352 347 343 344 343 341
310 310 310 309 307 305 306 307 307 307 307 307 306 306 306 307 307 308 308 309 312 317 319 317 314 313 309 308 313 316 317 317 320 330 335 341 344 346 342 338 344 338 343 339 332 334 336
310 310 309 307 305 305 305 304 304 303 303 303 303 304 304 304 304 306 308 310 314 316 319 319 316 313 309 312 313 315 316 317 318 321 333 333 335 339 335 327 330 327 327 328 328 329 331
307 305 304 303 303 302 302 302 302 302 302 302 302 302 303 303 303 305 310 311 315 317 319 319 314 311 309 313 312 315 316 316 318 323 329 328 327 338 324 323 324 326 327 330 329 329 330
303 303 302 302 302 301 301 301 301 301 301 301 302 302 302 303 303 304 310 312 315 319 317 316 315 311 312 312 312 313 314 316 318 323 323 325 326 326 323 325 324 324 327 329 330 329 334
302 301 301 301 301 301 301 301 300 300 300 300 300 300 301 302 303 304 310 312 313 313 320 318 316 312 314 315 314 313 312 316 322 325 324 323 323 325 324 324 325 324 325 326 329 331 336
301 301 301 300 300 300 300 300 299 299 300 299 300 300 300 301 302 304 310 312 311 312 310 322 322 316 319 318 323 315 314 320 319 321 321 322 323 324 324 323 323 323 324 328 328 328 336
300 300 299 299 299 299 299 299 299 299 299 299 299 300 300 300 301 303 308 308 304 304 308 313 315 315 320 318 319 321 314 316 318 319 321 323 323 323 323 323 323 322 323 326 327 327 329
299 299 299 299 299 299 299 299 299 299 299 299 299 300 300 300 302 302 304 306 304 303 308 311 312 312 314 317 317 319 316 316 319 320 320 322 322 322 323 324 324 324 323 324 326 327 328
299 299 299 299 299 299 299 299 299 299 299 300 300 300 300 301 302 303 305 306 303 306 312 316 312 313 313 316 317 317 318 318 319 320 321 321 323 323 323 324 324 324 323 323 324 326 330
299 299 299 299 299 299 299 299 299 299 300 300 300 300 301 301 304 304 304 306 303 307 318 318 313 312 313 317 317 317 319 320 321 321 322 322 323 323 324 324 325 324 324 323 324 327 328
299 299 299 299 299 299 299 299 299 300 300 300 300 300 301 304 304 304 305 306 308 313 318 319 314 314 315 316 316 317 318 320 321 322 322 322 320 323 325 325 325 325 325 325 325 326 328
299 299 299 299 299 299 299 299 300 301 301 300 300 301 302 304 304 304 305 304 312 315 316 318 317 316 316 317 316 319 320 321 323 323 324 323 322 322 324 325 325 325 325 327 327 327 327
299 299 299 300 300 299 299 299 300 301 301 301 300 301 303 303 304 303 305 307 313 313 314 314 315 316 317 316 317 317 320 322 324 323 324 324 324 323 323 325 324 325 325 324 326 326 326
300 300 300 300 300 300 300 301 303 303 302 301 301 301 303 303 302 303 306 306 310 312 311 312 314 317 317 315 315 317 320 322 324 323 324 324 324 322 322 323 324 324 327 325 324 322 324
300 301 301 301 302 302 302 303 304 303 303 301 301 302 303 303 305 305 306 308 309 309 310 311 313 313 315 315 317 317 320 318 321 320 320 324 325 324 323 323 324 324 324 323 325 324 325
301 301 301 302 303 302 304 304 303 302 302 302 302 302 303 304 304 305 306 306 306 308 309 311 312 313 313 314 315 315 318 317 315 319 321 321 323 323 324 324 324 322 325 324 325 324 324
300 300 300 301 301 301 303 303 303 302 302 302 302 303 303 302 304 303 304 304 305 307 309 309 310 313 314 314 315 317 318 317 313 318 322 320 321 326 325 325 325 324 325 325 325 327 325
300 300 300 300 301 301 302 303 303 302 302 302 302 301 302 302 304 304 304 304 305 308 309 309 310 311 312 314 315 316 317 314 314 318 319 319 322 327 326 325 322 325 325 325 326 326 328
300 300 300 300 301 301 301 301 302 303 303 303 302 304 302 302 301 302 302 304 305 306 307 308 309 308 310 313 313 314 314 313 312 315 316 316 319 324 327 326 322 324 324 325 326 328 327
300 300 300 300 300 300 301 302 302 302 301 302 302 303 302 303 303 303 303 303 305 305 304 306 308 308 307 311 311 312 311 311 312 312 313 316 319 318 319 318 319 321 321 322 324 327 329
302 302 302 301 301 301 300 301 302 302 301 302 302 303 302 301 303 304 303 304 304 304 303 304 308 308 307 309 309 310 308 311 311 312 312 312 316 316 317 316 318 320 321 321 322 323 323
303 303 303 303 303 303 303 301 301 303 302 302 302 302 302 302 303 304 304 304 304 304 304 305 304 305 305 307 305 306 306 306 308 309 310 312 313 315 316 317 318 320 321 321 322 322 323
303 303 303 303 303 303 303 303 302 302 303 303 302 302 302 304 303 303 302 302 303 304 304 304 303 304 304 304 304 305 306 306 307 308 308 311 315 315 314 315 318 321 321 322 324 323 323
303 302 302 301 301 301 301 302 303 304 302 302 302 303 302 304 302 303 303 303 303 303 303 302 303 304 303 304 307 305 306 309 309 308 308 309 311 313 313 315 317 317 319 327 331 328 332
302 301 301 301 300 300 300 301 303 304 304 303 302 302 302 302 303 303 303 303 303 302 303 303 303 303 305 306 307 307 305 308 307 312 310 309 310 312 313 313 316 321 321 325 333 329 335
302 301 301 301 300 300 300 302 304 304 304 304 305 302 301 302 302 302 303 303 302 303 303 302 303 303 304 306 306 306 307 308 307 307 312 311 310 311 311 313 314 317 322 331 334 330 336
302 301 301 301 300 300 300 302 305 305 305 304 305 305 302 301 301 302 302 302 302 302 303 303 303 304 305 306 306 306 308 308 311 308 308 310 313 312 312 312 312 316 318 321 332 332 332
301 301 301 300 300 300 301 304 307 306 306 306 305 305 304 303 302 302 302 303 302 302 302 302 303 303 304 307 306 306 309 309 310 310 310 312 311 314 313 311 313 315 319 320 327 328 330

GFSGBSN_850_thetae_036.txt.gz
Theta_e
310 309 307 305 304 304 304 303 303 303 303 303 303 303 303 304 304 305 306 308 310 313 314 315 318 315 312 315 314 315 318 317 319 327 330 334 340 339 341 343 346 349 347 343 343 343 342
305 304 303 302 302 302 302 302 302 302 302 302 302 302 303 303 303 304 305 306 312 313 315 315 318 317 313 315 314 314 317 316 321 331 331 335 338 337 337 342 345 343 344 342 338 337 337
302 302 301 301 301 301 301 301 301 300 300 300 301 301 301 302 303 303 304 306 312 315 317 317 318 317 315 316 313 313 321 325 332 332 331 334 336 337 339 340 336 340 335 334 334 333 334
301 301 301 301 300 300 300 300 300 300 300 300 300 301 301 301 302 303 304 308 312 315 317 318 318 315 318 316 315 316 324 327 334 332 330 333 335 338 335 331 329 334 331 334 335 334 332
300 300 300 299 299 300 300 300 299 299 300 300 300 301 301 301 302 303 305 309 312 313 316 316 315 317 320 315 313 315 325 326 334 333 331 331 332 336 335 331 331 330 336 337 337 334 335
300 299 299 299 299 299 299 299 300 300 300 300 300 300 301 301 302 303 306 310 312 312 318 318 318 317 317 318 317 313 319 323 334 329 329 330 329 333 336 335 334 334 333 335 338 336 335
299 299 299 299 299 299 299 299 299 300 300 300 300 300 301 301 302 303 304 311 316 320 313 323 326 321 321 319 319 315 314 327 331 326 326 324 326 328 328 329 331 332 333 334 335 335 334
299 299 299 299 299 299 299 299 300 300 300 300 300 300 301 301 302 303 307 309 306 305 309 311 313 318 322 321 323 317 317 323 326 329 325 324 325 325 326 327 327 329 329 332 334 333 332
299 299 299 299 299 299 299 300 300 300 300 300 300 300 300 301 301 305 308 307 307 306 311 314 315 315 316 318 321 320 319 321 325 326 324 324 324 325 325 326 327 327 329 331 332 333 332
299 299 299 299 299 299 300 299 300 300 300 300 300 300 300 301 306 306 307 306 307 307 316 319 317 317 317 319 321 322 317 321 323 325 325 325 325 324 325 325 326 328 327 328 329 331 333
299 299 300 300 300 300 300 300 300 300 301 301 301 300 300 302 304 307 305 306 306 309 317 321 317 315 317 321 324 321 320 320 322 323 325 324 324 324 325 325 325 325 326 327 328 328 331
300 300 300 300 300 300 300 300 301 301 301 302 300 301 301 305 307 305 305 305 309 315 316 322 316 317 318 319 322 322 322 318 320 323 324 325 324 324 325 325 325 325 326 326 327 327 331
300 300 301 301 301 301 301 301 302 302 302 302 300 301 302 302 305 304 303 308 312 315 318 321 320 320 320 320 322 322 323 324 326 326 325 324 325 325 325 326 326 325 327 328 327 328 329
301 301 301 301 301 301 301 301 301 302 302 302 301 301 303 304 304 304 306 311 310 315 317 316 317 318 320 321 320 322 323 325 325 326 328 327 326 325 326 326 327 326 327 327 329 328 328
301 301 301 301 301 301 301 302 302 303 303 302 302 304 305 304 304 306 308 309 310 314 313 313 316 320 322 320 320 321 322 325 325 327 329 329 328 326 326 326 327 328 328 327 327 328 329
301 301 301 301 301 301 302 302 302 303 303 302 303 305 305 304 304 308 308 307 310 309 310 313 316 317 320 320 321 322 322 322 325 326 327 328 330 327 325 326 327 328 327 327 327 329 329
301 301 301 301 301 301 301 302 301 302 302 301 306 306 305 304 305 306 307 306 307 306 308 311 313 315 317 318 319 321 323 320 320 325 324 327 329 330 327 326 327 327 328 328 328 328 329
301 301 301 301 300 301 301 301 302 302 302 304 305 307 304 305 307 306 307 306 305 307 307 310 311 311 315 317 319 320 323 321 317 321 325 326 328 331 328 327 326 327 327 328 328 330 328
302 301 301 300 300 300 300 301 302 302 302 304 305 305 304 304 306 306 306 306 306 307 308 309 311 312 313 315 318 318 320 316 315 320 325 326 327 331 330 329 327 327 327 328 328 329 331
303 303 303 303 302 302 301 300 301 303 302 304 305 307 305 305 305 306 306 306 306 305 306 306 309 310 313 313 314 316 317 315 314 315 316 319 327 330 332 330 329 328 328 328 328 331 329
304 304 304 304 304 304 304 302 301 303 302 304 305 306 305 306 306 306 305 306 306 306 305 305 308 307 309 313 313 314 314 314 315 314 317 320 327 326 329 326 325 329 328 328 329 329 330
304 303 303 303 302 302 303 303 303 303 302 305 305 305 305 305 304 304 305 306 305 305 305 306 308 306 306 310 311 312 312 313 314 315 315 316 324 323 325 323 323 325 326 327 328 329 330
303 303 302 302 301 301 301 301 302 303 303 305 305 305 305 304 305 305 305 304 304 304 305 305 306 306 306 307 307 308 308 309 311 312 314 315 318 321 326 324 323 325 326 327 327 328 329
303 302 302 301 301 300 300 300 300 301 304 304 303 303 304 305 305 305 305 304 305 304 305 305 305 305 306 305 305 307 308 308 309 310 311 315 316 318 323 323 325 326 327 327 326 327 327
302 302 302 301 301 301 300 300 300 301 303 305 302 302 303 305 304 305 305 305 305 304 304 305 304 305 305 305 309 310 310 310 310 310 311 312 315 317 320 322 324 324 323 324 326 328 327
302 302 302 301 301 301 300 300 300 301 304 304 303 304 302 302 305 304 305 304 305 305 305 304 304 305 306 308 309 309 309 310 310 311 310 311 313 315 317 320 323 323 323 322 325 331 329
301 301 301 301 300 299 300 300 301 303 305 305 305 303 302 302 303 304 305 306 304 304 306 304 305 305 305 308 309 309 308 308 309 310 314 311 313 314 314 316 319 320 324 328 329 338 334
300 299 299 300 300 301 302 303 303 306 307 307 306 306 303 302 303 304 304 304 304 304 305 305 305 306 307 308 308 308 308 309 310 310 310 313 313 313 314 315 316 316 317 321 325 324 329
302 303 302 303 304 304 304 304 305 307 308 307 307 308 304 303 303 305 305 305 304 303 304 304 304 305 306 309 309 308 310 310 311 311 311 313 312 313 313 314 315 315 316 318 318 319 321

GFSGBSN_850_thetae_042.txt.gz
Theta_e
301 300 300 300 300 300 300 301 301 301 302 302 302 303 303 303 303 303 304 304 305 305 306 308 313 314 312 319 318 321 320 319 319 317 323 326 333 337 344 344 344 345 345 346 345 346 346
300 300 300 300 300 300 300 301 301 302 302 302 302 302 303 303 303 304 304 305 305 305 307 310 315 316 312 323 324 322 323 319 320 319 324 323 332 335 341 343 344 344 344 346 347 344 347
300 300 300 300 300 300 300 301 301 301 301 302 302 302 303 303 303 304 304 305 305 306 308 311 315 316 317 322 324 320 322 324 323 321 321 324 328 334 338 342 342 342 344 345 346 343 343
300 300 300 300 300 301 301 301 301 302 302 302 302 302 302 303 303 304 304 304 305 311 313 311 316 314 320 326 324 321 318 320 324 323 323 325 325 331 335 339 341 342 344 347 345 345 342
300 300 301 301 301 301 301 301 301 302 302 302 302 302 303 303 303 304 305 310 312 313 316 315 319 320 326 327 326 325 321 319 326 326 326 327 326 329 332 340 343 343 345 347 346 344 343
301 301 301 301 301 301 301 301 301 302 302 302 302 302 303 303 304 308 310 312 314 316 325 320 324 325 325 326 326 325 325 321 326 328 329 329 329 330 333 339 346 344 342 344 345 342 341
301 301 301 301 301 301 301 301 302 302 302 302 302 302 302 302 305 309 311 311 311 321 314 320 326 323 327 328 325 324 324 322 326 329 333 332 332 335 334 337 340 341 340 339 342 343 340
301 301 301 301 301 301 301 302 302 302 302 302 302 302 302 303 306 310 312 311 309 309 311 312 313 315 319 325 325 323 322 323 328 331 333 334 335 333 334 336 338 340 339 336 339 340 341
301 301 301 301 302 302 302 302 302 302 302 302 302 302 302 303 308 311 311 309 308 310 311 311 313 314 314 318 323 327 321 324 329 332 334 335 334 333 334 336 336 339 339 337 338 341 341
302 302 302 302 302 302 302 302 302 302 302 302 302 302 302 303 308 311 310 308 308 310 312 316 318 318 315 316 322 327 321 327 329 331 335 334 334 333 334 335 333 338 339 338 338 340 342
301 302 302 302 301 302 302 302 302 302 302 302 302 302 302 307 307 311 308 308 309 311 316 322 321 320 320 317 324 325 326 326 328 331 335 336 333 333 334 333 332 332 333 337 337 337 338
301 301 302 301 301 302 302 302 302 303 303 303 303 302 303 308 310 309 307 308 310 314 314 322 321 321 322 320 320 324 327 325 326 329 334 335 331 330 329 330 329 329 332 333 333 335 338
301 301 301 302 302 302 302 302 302 303 305 304 304 304 306 308 309 307 308 310 312 313 315 317 316 316 317 321 323 322 328 329 325 326 336 335 335 330 329 328 328 328 328 330 331 334 334
302 302 302 302 302 302 302 302 303 303 304 306 307 307 309 310 308 307 308 312 312 312 313 313 312 313 317 321 323 324 324 329 325 325 330 332 333 333 328 328 329 328 328 329 333 332 331
303 304 304 304 304 305 305 306 306 305 305 306 308 310 312 310 308 308 310 313 312 311 311 310 310 312 314 317 320 324 326 328 328 324 331 332 331 331 330 329 330 328 329 328 328 330 330
304 305 305 305 306 306 305 304 303 303 303 306 309 311 312 310 308 310 312 312 311 311 310 309 308 310 310 312 315 319 323 327 328 325 326 329 331 330 330 330 329 329 329 328 329 332 334
304 305 305 305 305 304 303 302 302 302 303 305 311 313 311 310 309 311 313 311 311 309 308 308 309 309 310 312 314 316 322 323 324 327 328 327 330 331 331 331 330 329 330 329 328 329 331
303 304 304 304 303 303 302 302 301 301 302 303 310 315 312 309 311 311 311 311 309 310 308 309 309 309 312 313 315 317 321 323 323 322 326 329 328 331 331 332 330 330 329 331 333 335 332
302 303 304 303 303 302 302 301 301 301 301 304 310 312 312 310 311 311 310 310 308 309 310 309 309 308 309 310 313 317 318 318 318 320 322 324 330 332 332 334 332 331 330 330 331 330 336
302 302 303 303 303 302 302 302 301 301 300 304 311 313 311 309 310 310 310 309 308 307 309 308 310 309 309 310 311 314 314 316 316 319 319 321 328 332 335 335 335 333 330 331 330 334 332
302 302 302 302 303 302 302 301 301 301 300 306 309 310 309 310 310 310 310 309 309 310 309 307 308 310 311 309 310 312 313 314 316 319 321 325 330 331 332 333 334 331 330 330 332 334 334
301 301 302 302 302 302 302 301 301 300 300 307 308 307 305 306 308 309 310 310 310 309 308 308 308 309 310 310 310 310 311 312 316 316 317 321 327 330 333 333 333 334 331 331 331 330 332
301 301 302 302 302 301 301 300 300 300 303 306 306 305 304 305 308 309 309 309 309 309 308 307 308 308 308 308 308 308 308 309 312 314 315 319 324 328 332 332 334 335 334 332 332 332 331
301 301 301 300 300 299 300 301 301 302 304 306 305 304 303 306 308 309 309 308 309 309 309 307 307 307 307 308 307 307 309 310 311 313 314 316 320 325 329 332 336 334 333 333 333 332 332
300 300 303 305 305 305 304 304 304 304 305 305 306 305 303 306 306 307 307 309 308 308 309 308 307 307 307 307 309 310 312 312 313 313 314 315 317 322 328 331 333 333 332 333 332 333 332
307 307 307 307 307 307 306 307 306 306 306 306 307 306 305 303 306 307 307 308 309 310 309 308 308 307 308 308 310 311 314 316 313 314 315 315 317 319 325 329 332 333 331 331 331 333 334
307 307 308 308 308 308 307 308 307 306 307 307 308 308 307 303 304 306 308 308 308 308 309 308 308 308 308 309 311 312 313 313 314 315 315 315 316 318 321 324 328 329 327 328 332 338 334
308 309 309 309 309 308 308 308 307 306 307 309 309 308 308 305 306 307 307 308 308 308 309 308 308 309 311 312 313 315 315 314 314 314 316 316 316 317 319 322 326 323 324 330 331 326 326
310 310 309 309 309 309 308 307 306 307 309 309 309 309 308 307 307 308 308 307 308 308 308 308 308 307 308 311 312 311 312 312 313 314 314 314 317 318 318 320 325 319 320 319 320 322 323

GFSGBSN_850_thetae_045.txt.gz
Theta_e
301 301 301 301 301 301 301 302 302 302 302 302 302 303 303 303 304 304 304 304 304 305 305 306 308 311 314 313 319 326 321 320 321 318 317 319 322 329 333 342 344 344 345 345 345 343 346
301 301 301 301 301 301 302 302 302 302 302 302 302 303 303 303 304 304 304 304 305 305 307 309 309 314 315 317 324 324 320 321 319 318 318 319 324 329 333 336 342 343 345 345 344 342 345
301 301 301 301 301 302 302 302 302 302 302 302 303 303 303 304 304 305 306 308 311 311 311 312 311 313 317 317 324 324 322 322 320 319 318 319 325 327 333 336 340 342 344 346 346 346 347
301 301 301 302 302 302 302 302 302 302 302 303 303 303 303 304 304 305 311 312 313 312 313 314 314 315 318 317 324 324 323 323 323 321 318 320 323 324 325 335 338 340 342 343 344 344 345
301 302 302 302 302 302 302 302 302 302 302 303 303 303 303 303 304 308 311 311 310 311 317 320 318 318 321 324 325 323 323 324 325 323 323 320 323 324 324 330 335 337 342 341 344 342 344
302 302 302 302 302 302 302 302 302 302 302 303 303 303 303 303 303 309 311 312 309 321 320 322 323 321 319 324 327 326 320 320 321 325 323 323 324 324 323 327 334 338 340 340 343 344 344
302 302 302 302 302 302 302 302 302 303 303 303 303 304 304 304 304 310 312 311 309 312 312 309 310 319 315 325 327 327 325 323 320 326 325 326 326 326 324 327 330 338 341 341 340 343 342
302 302 302 302 302 302 302 302 303 304 305 305 304 304 305 305 305 310 312 309 308 308 309 309 309 311 312 320 316 324 326 325 322 325 326 328 329 327 328 328 329 336 339 341 339 338 340
302 302 302 302 302 302 302 303 304 305 306 307 305 304 304 305 306 310 312 308 308 308 308 310 311 311 312 312 314 318 323 325 322 324 326 329 331 331 331 329 330 333 337 338 338 335 336
302 302 302 302 302 303 303 303 303 304 305 307 307 305 305 305 306 309 309 308 308 309 309 313 316 316 316 313 315 319 323 324 324 324 326 329 331 332 332 331 331 333 335 338 339 337 340
302 302 302 302 302 303 303 304 305 306 306 306 308 308 306 305 306 310 308 308 308 309 313 319 315 316 313 315 316 318 325 322 323 324 327 329 332 332 332 332 332 334 333 335 337 338 337
303 303 303 304 304 305 306 306 305 304 305 307 309 309 306 307 308 309 308 308 309 311 314 314 313 312 311 313 317 320 319 322 323 323 328 328 333 332 332 331 332 333 332 331 335 336 338
304 305 305 305 306 306 306 304 304 303 303 306 309 309 308 309 308 309 308 308 310 311 313 312 310 309 309 312 314 314 317 322 325 323 328 328 329 333 332 332 331 331 329 329 330 333 336
305 305 306 306 306 305 305 304 304 304 304 304 307 311 310 311 310 310 308 309 312 313 311 310 309 309 309 310 312 313 313 319 325 324 326 328 330 332 333 330 329 331 329 327 331 332 332
304 304 305 305 305 304 304 303 303 304 304 304 305 312 312 313 311 310 309 311 312 310 310 309 308 307 308 309 310 312 312 316 323 327 325 324 326 333 333 329 327 327 327 324 323 326 326
303 303 304 304 304 303 303 303 302 302 303 304 304 313 313 311 311 310 310 312 312 310 309 308 307 308 308 309 311 311 313 315 317 321 317 324 322 330 333 333 328 325 324 324 323 324 326
302 302 302 303 303 303 302 302 302 301 301 302 306 313 312 311 311 311 311 312 311 310 309 309 308 307 307 309 311 311 313 314 318 318 317 319 322 322 327 331 331 325 325 324 322 322 325
302 302 302 302 302 303 303 302 302 301 301 301 307 311 313 312 312 312 311 311 309 309 309 310 309 309 308 308 308 309 311 312 314 314 315 318 321 323 323 327 330 327 325 324 325 324 323
302 302 302 302 302 302 302 302 302 301 300 300 308 311 311 310 310 311 310 310 309 309 308 309 309 309 308 309 311 313 313 313 313 313 315 318 321 326 325 324 326 328 326 325 323 324 325
301 301 301 301 302 302 302 301 301 301 300 301 309 310 309 309 308 308 309 310 310 310 310 309 308 308 309 309 309 311 310 313 312 312 313 318 320 322 328 326 327 329 328 326 324 326 326
301 301 301 301 301 301 301 301 300 300 300 305 308 309 308 308 307 307 309 309 311 310 309 309 309 308 309 308 309 310 310 310 310 311 313 314 318 323 327 328 330 330 329 328 326 325 329
301 301 301 301 300 300 299 300 301 301 302 306 308 308 305 306 306 307 308 309 309 308 309 309 308 308 307 309 309 308 308 308 310 311 311 311 318 323 331 330 330 332 331 329 328 327 327
300 300 300 302 305 305 305 305 304 303 305 306 307 306 305 306 306 307 309 309 309 309 309 309 309 307 307 308 308 308 308 308 308 311 310 311 315 320 329 331 332 334 333 330 328 328 327
300 304 307 307 306 306 306 306 305 305 306 305 306 307 304 306 306 307 307 308 309 309 310 309 309 309 307 307 307 308 308 308 308 309 310 311 313 318 326 330 334 331 332 333 330 329 328
307 308 307 306 307 307 307 306 306 306 307 306 306 308 304 304 305 306 308 308 308 308 309 309 308 308 308 308 308 308 309 310 311 310 310 311 312 317 325 330 331 332 328 328 333 336 334
307 308 308 308 309 309 308 308 308 307 307 307 307 307 307 303 306 307 307 307 309 309 309 308 309 308 308 309 309 311 312 312 315 312 311 312 314 318 322 330 335 326 325 323 328 334 328
308 308 309 310 309 309 309 308 308 307 307 307 308 308 308 304 306 306 308 308 308 308 309 308 308 308 308 309 310 313 314 314 315 316 314 314 315 317 319 324 328 321 321 327 334 332 324
309 309 310 309 308 308 307 307 307 307 307 308 309 309 308 306 307 308 307 308 308 308 310 308 308 309 309 311 312 312 315 313 313 314 314 317 318 317 318 322 327 319 320 321 325 323 322
310 309 309 308 306 307 309 310 311 309 308 309 309 310 309 308 308 307 307 308 308 308 308 308 308 308 307 309 309 309 310 313 311 315 313 315 314 314 316 316 317 317 318 317 318 318 318

GFSGBSN_850_thetae_048.txt.gz
Theta_e
301 301 302 302 302 302 302 302 303 303 303 303 304 304 304 304 304 304 306 309 310 310 310 308 309 309 313 312 316 324 321 319 317 316 317 317 318 320 327 334 339 345 346 347 347 345 345
301 302 302 302 302 302 302 302 303 303 303 303 304 304 305 305 305 305 308 310 311 312 311 311 311 312 314 314 320 322 322 320 320 316 317 318 320 324 327 329 338 343 344 344 347 343 345
302 302 302 302 302 302 302 303 303 303 303 304 304 304 304 305 305 306 310 311 310 309 310 310 312 314 314 311 320 324 323 322 320 319 317 317 320 323 326 330 332 334 339 343 345 344 345
302 302 302 302 302 302 303 303 303 303 304 304 304 305 305 305 305 306 311 311 309 311 318 319 320 319 314 312 316 320 322 322 323 320 319 318 319 322 322 325 323 334 336 343 346 345 346
302 302 302 302 302 303 303 303 304 305 307 308 307 306 306 306 306 306 311 311 308 313 316 312 321 323 318 317 322 324 322 323 324 320 319 318 318 320 323 321 321 330 334 339 345 345 347
302 302 302 302 303 303 304 304 305 305 306 307 308 307 307 306 306 306 311 311 308 308 321 310 320 320 317 319 321 324 324 323 324 321 319 319 319 317 319 318 324 329 336 337 339 345 346
302 302 302 303 303 304 304 304 304 305 305 306 308 309 308 308 306 307 312 309 307 307 307 307 307 310 310 309 311 321 322 323 325 322 319 320 318 319 320 320 322 329 333 336 338 340 347
302 302 302 303 303 303 304 305 306 306 306 306 307 309 309 310 307 309 311 308 308 308 307 312 311 309 309 310 309 319 321 323 322 323 321 322 321 320 323 322 322 325 328 334 337 337 340
302 302 303 303 304 305 306 306 305 305 305 306 308 309 309 310 308 307 308 307 308 308 306 309 313 312 312 312 310 312 317 321 322 320 323 323 326 325 325 325 324 325 326 328 336 337 336
304 304 304 304 305 306 305 305 304 304 305 305 306 308 309 309 307 308 307 307 309 308 304 310 313 312 311 312 312 315 315 317 323 321 319 324 325 327 327 327 326 325 326 328 333 336 337
305 305 306 306 306 306 305 305 304 304 305 305 305 305 309 308 307 307 307 308 309 309 308 314 309 310 309 309 312 314 314 317 320 321 319 322 325 326 327 328 328 327 327 328 331 334 335
305 305 305 305 305 305 304 304 304 304 304 304 305 304 309 309 309 308 308 309 309 307 312 311 308 308 308 308 309 311 312 314 319 320 321 322 324 326 328 329 329 328 329 330 330 330 336
304 304 304 304 304 303 303 303 303 303 303 304 304 305 312 311 310 310 309 309 306 308 309 309 306 306 306 308 309 310 311 312 314 321 321 322 322 325 329 329 329 329 328 332 331 332 333
303 303 303 303 303 303 303 303 303 303 302 304 304 310 312 312 311 310 310 305 310 310 308 307 306 305 307 310 309 310 311 311 316 317 318 320 321 323 326 329 331 329 328 329 334 330 330
302 302 302 302 302 302 303 303 303 302 302 303 304 312 312 312 312 311 311 306 308 309 308 307 305 305 306 307 309 310 310 313 315 316 317 317 321 326 327 328 329 329 329 324 322 322 324
302 302 302 302 302 302 302 302 302 302 302 302 303 310 312 312 312 311 305 308 308 310 308 307 307 305 304 305 308 309 310 311 311 314 313 316 318 322 327 326 328 327 325 326 318 327 323
302 302 302 301 301 302 302 302 302 301 301 301 304 309 312 310 312 311 305 307 308 308 309 308 308 307 306 306 307 307 309 309 312 314 313 313 314 321 322 322 329 325 327 324 324 318 324
301 301 301 301 301 301 302 302 301 300 300 301 305 305 311 309 307 307 306 308 309 309 309 308 308 308 307 306 309 309 311 311 311 313 313 313 316 320 322 322 322 331 322 321 323 320 318
301 301 301 301 301 301 301 301 300 299 300 301 306 309 310 308 304 305 306 308 309 310 309 308 308 307 307 306 308 311 310 310 311 312 314 313 319 319 321 320 321 322 327 320 318 317 319
300 300 301 300 300 300 300 300 300 301 301 302 308 304 308 307 305 305 306 308 309 309 309 308 308 306 307 307 307 309 310 311 310 309 311 313 316 317 321 321 320 322 323 322 322 322 321
300 300 299 300 303 306 306 306 306 305 304 304 308 305 306 303 304 304 305 306 309 309 308 308 308 307 307 307 306 308 309 309 308 309 310 311 314 312 314 316 319 321 327 325 322 322 323
300 300 302 307 307 307 306 306 305 306 306 305 307 307 306 305 305 305 306 308 309 309 309 309 309 308 308 305 306 306 307 307 308 308 308 308 311 310 312 320 323 326 330 329 324 324 324
300 304 307 307 307 307 307 306 306 306 306 306 306 306 306 306 305 306 306 307 308 308 309 309 308 308 307 307 306 307 307 307 308 309 308 309 309 310 317 324 329 330 325 330 326 323 323
305 307 307 308 308 309 309 308 307 307 306 306 306 306 305 306 306 307 307 307 309 308 309 309 308 307 308 308 308 307 306 306 307 308 308 309 309 308 315 321 332 325 321 322 328 326 326
307 308 308 309 309 309 308 308 307 307 306 306 306 306 306 305 305 306 307 308 307 307 308 308 308 308 308 308 304 305 306 308 309 308 308 309 311 309 319 326 329 325 322 321 321 324 321
308 308 309 309 309 308 308 308 307 308 307 307 307 307 308 305 306 306 307 307 308 308 308 307 307 307 308 304 305 310 313 315 316 315 309 310 312 310 314 328 331 321 320 319 323 323 319
308 309 310 308 308 307 307 307 307 308 307 307 307 308 308 305 307 307 308 308 307 308 308 308 307 308 308 308 310 313 315 313 316 317 313 312 314 315 317 327 325 317 318 321 326 324 318
310 310 308 307 307 308 309 310 310 308 308 308 309 309 309 308 308 308 307 307 307 308 309 308 306 306 304 307 310 309 312 312 312 312 313 315 317 315 316 324 325 315 317 318 315 315 315
310 308 307 307 310 311 312 312 309 308 308 309 309 309 309 308 308 309 309 309 309 308 307 308 306 306 306 305 306 307 309 310 310 313 309 313 311 314 312 316 314 313 315 315 313 312 312